This is the latest recevied weather packets stored in our database for station/object SR6WVX. If no packets are shown the sender has not sent any weather packets the latest 10 day(s).
| Time | Temp. | Humidity | Pressure | Rain* | Wind** | Luminosity | Snow |
|---|---|---|---|---|---|---|---|
| 1778078623 | 27.22° C | 36% | 999.6 hPa | 0 mm | - | - | - |
| 1778078323 | 27.22° C | 35% | 999.4 hPa | 0 mm | - | - | - |
| 1778078023 | 27.22° C | 35% | 999.5 hPa | 0 mm | - | - | - |
| 1778077723 | 27.22° C | 35% | 999.5 hPa | 0 mm | - | - | - |
| 1778077422 | 27.22° C | 35% | 999.7 hPa | 0 mm | - | - | - |
| 1778077122 | 27.22° C | 36% | 999.8 hPa | 0 mm | - | - | - |
| 1778076822 | 27.22° C | 36% | 999.8 hPa | 0 mm | - | - | - |
| 1778076522 | 26.67° C | 35% | 1000 hPa | 0 mm | - | - | - |
| 1778076221 | 27.22° C | 35% | 999.8 hPa | 0 mm | - | - | - |
| 1778075921 | 27.22° C | 37% | 1000 hPa | 0 mm | - | - | - |
| 1778075621 | 26.67° C | 40% | 1000 hPa | 0 mm | - | - | - |
| 1778075321 | 26.11° C | 41% | 999.9 hPa | 0 mm | - | - | - |
| 1778075020 | 25.56° C | 40% | 1000 hPa | 0 mm | - | - | - |
| 1778074720 | 26.11° C | 40% | 999.9 hPa | 0 mm | - | - | - |
| 1778074420 | 26.11° C | 39% | 1000.1 hPa | 0 mm | - | - | - |
| 1778074119 | 26.11° C | 40% | 1000 hPa | 0 mm | - | - | - |
| 1778073819 | 26.11° C | 40% | 1000 hPa | 0 mm | - | - | - |
| 1778073519 | 26.11° C | 39% | 1000 hPa | 0 mm | - | - | - |
| 1778073219 | 26.67° C | 39% | 1000 hPa | 0 mm | - | - | - |
| 1778072919 | 26.67° C | 41% | 1000.1 hPa | 0 mm | - | - | - |
| 1778072618 | 25° C | 42% | 1000.2 hPa | 0 mm | - | - | - |
| 1778072318 | 25° C | 42% | 1000.2 hPa | 0 mm | - | - | - |
| 1778072018 | 25° C | 41% | 1000.2 hPa | 0 mm | - | - | - |
| 1778071717 | 25° C | 42% | 1000.1 hPa | 0 mm | - | - | - |
| 1778071417 | 25.56° C | 41% | 1000.1 hPa | 0 mm | - | - | - |
* Rain latest hour (hover to see other rain measurements)
** Current wind speed in m/s (hover to see current wind gust speed)